Simultaneous Nadir Overpasses (SNOs) Predictions

Prediction of SNOs between NOAA-19 and TERRA Satellite Orbit:

Table of predicted SNOs for the next 14.0 days since TLE Epoch: 12/10/2022
Index Date (NOAA-19) Time (NOAA-19) Lat,Lon (NOAA-19) SZA (NOAA-19 ) Date (TERRA) Time (TERRA) Lat,Lon (TERRA) SZA (TERRA ) Distance(km) Time Diff (sec)
1 12/11/2022 08:03:10 -80.91, -85.31 74.38 12/11/2022 08:03:34 -80.91, -85.29 74.37 0.60 24
2 12/11/2022 08:54:05 80.91, 82.51 105.68 12/11/2022 08:52:56 80.91, 82.46 105.65 1.19 69
3 12/13/2022 11:53:53 80.91, 36.96 105.76 12/13/2022 11:54:31 80.91, 37.02 105.78 1.09 38
4 12/13/2022 12:44:55 -80.91,-155.22 74.20 12/13/2022 12:43:54 -80.92,-155.20 74.21 1.66 61
5 12/15/2022 15:44:43 -80.91, 159.34 74.14 12/15/2022 15:45:29 -80.91, 159.27 74.13 1.39 46
6 12/15/2022 16:35:38 80.91, -33.17 105.89 12/15/2022 16:34:52 80.89, -33.32 105.84 3.31 46
7 12/17/2022 19:35:25 80.91, -78.42 105.92 12/17/2022 19:36:26 80.90, -78.60 105.92 3.20 61
8 12/17/2022 20:26:28 -80.91, 89.32 74.04 12/17/2022 20:25:49 -80.91, 89.18 74.07 2.61 39
9 12/19/2022 23:26:16 -80.91, 43.78 74.06 12/19/2022 23:27:23 -80.92, 43.80 74.04 0.52 67
10 12/20/2022 00:17:10 80.91,-148.62 105.97 12/20/2022 00:16:46 80.90,-148.77 105.93 3.06 24



Historial Predications of SNOs between NOAA-19 and TERRA
